When you browse on this site, cookies collect data to enhance your experience and personalize the content and advertising you see.
Visit our Privacy Policy to learn more. By continuing to use the site, you agree to this use of cookies and data.
  • In Hungary
  • List of Countries
  • For 7 days
  • Water Temperature
  • Satellite Maps
  • Weather Map
  • News
  • Weather Widgets
  • user-avatar
    Login

    Hourly Weather Quito

    Today, 19 December, Wednesday

    Time Temperature Precipitation Wind Pressure Humidity
    00:00 +10°C° 0.1 mm 1 mps 535 mmHg 91%
    01:00 +10°C° 0.1 mm 1 mps 535 mmHg 89%
    02:00 +10°C° 0.2 mm 1 mps 535 mmHg 89%
    03:00 +10°C° 0.2 mm 1 mps 535 mmHg 89%
    04:00 +9°C° 0.2 mm 1 mps 534 mmHg 88%
    05:00 +10°C° 0.2 mm 1 mps 535 mmHg 87%
    06:00 +10°C° 0.2 mm 1 mps 535 mmHg 86%
    07:00 +10°C° 0.2 mm 1 mps 535 mmHg 85%
    08:00 +12°C° 0.2 mm 1 mps 537 mmHg 80%
    09:00 +14°C° 0.2 mm 1 mps 538 mmHg 75%
    10:00 +15°C° 0.2 mm 1 mps 539 mmHg 70%
    11:00 +15°C° 0.7 mm 1 mps 538 mmHg 72%
    12:00 +15°C° 0.7 mm 2 mps 538 mmHg 74%
    13:00 +15°C° 0.7 mm 2 mps 537 mmHg 77%
    14:00 +14°C° 1.1 mm 2 mps 537 mmHg 79%
    15:00 +14°C° 1.1 mm 1 mps 536 mmHg 81%
    16:00 +14°C° 1.1 mm 1 mps 535 mmHg 84%
    17:00 +13°C° 0.6 mm 1 mps 535 mmHg 87%
    18:00 +12°C° 0.6 mm 1 mps 535 mmHg 90%
    19:00 +11°C° 0.6 mm 1 mps 535 mmHg 94%
    20:00 +11°C° 0.3 mm 1 mps 535 mmHg 93%
    21:00 +10°C° 0.3 mm 1 mps 535 mmHg 93%
    22:00 +10°C° 0.3 mm 1 mps 535 mmHg 92%
    23:00 +10°C° 0.2 mm 1 mps 535 mmHg 92%

    Tomorrow, 20 December, Thursday

    Time Temperature Precipitation Wind Pressure Humidity
    00:00 +10°C° 0.2 mm 1 mps 535 mmHg 91%
    01:00 +9°C° 0.2 mm 1 mps 535 mmHg 91%
    02:00 +9°C° 0.3 mm 1 mps 535 mmHg 91%
    03:00 +9°C° 0.3 mm 1 mps 534 mmHg 91%
    04:00 +9°C° 0.3 mm 1 mps 534 mmHg 91%
    05:00 +10°C° 0.3 mm 1 mps 535 mmHg 90%
    06:00 +10°C° 0.3 mm 1 mps 535 mmHg 89%
    07:00 +10°C° 0.3 mm 1 mps 536 mmHg 88%
    08:00 +12°C° 0.4 mm 1 mps 537 mmHg 83%
    09:00 +13°C° 0.4 mm 1 mps 538 mmHg 79%
    10:00 +14°C° 0.4 mm 1 mps 539 mmHg 75%
    11:00 +14°C° 0.9 mm 1 mps 538 mmHg 78%
    12:00 +14°C° 0.9 mm 1 mps 537 mmHg 81%
    13:00 +13°C° 0.9 mm 1 mps 536 mmHg 84%
    14:00 +13°C° 1 mm 1 mps 536 mmHg 85%
    15:00 +13°C° 1 mm 1 mps 535 mmHg 87%
    16:00 +13°C° 1 mm 1 mps 534 mmHg 89%
    17:00 +12°C° 0.8 mm 1 mps 535 mmHg 91%
    18:00 +11°C° 0.8 mm 1 mps 535 mmHg 93%
    19:00 +10°C° 0.8 mm 0 mps 535 mmHg 95%
    20:00 +10°C° 0.8 mm 0 mps 535 mmHg 95%
    21:00 +9°C° 0.8 mm 0 mps 535 mmHg 95%
    22:00 +9°C° 0.8 mm 0 mps 536 mmHg 95%
    23:00 +9°C° 0.4 mm 0 mps 535 mmHg 94%

    Day after tomorrow, 21 December, Friday

    Time Temperature Precipitation Wind Pressure Humidity
    00:00 +10°C° 0.4 mm 1 mps 535 mmHg 93%
    01:00 +10°C° 0.4 mm 1 mps 535 mmHg 93%
    02:00 +10°C° 0.3 mm 1 mps 534 mmHg 92%
    03:00 +9°C° 0.3 mm 0 mps 534 mmHg 92%
    04:00 +8°C° 0.3 mm 0 mps 534 mmHg 92%
    05:00 +9°C° 0.3 mm 0 mps 534 mmHg 91%
    06:00 +9°C° 0.3 mm 0 mps 535 mmHg 90%
    07:00 +9°C° 0.3 mm 0 mps 535 mmHg 89%
    08:00 +12°C° 0.3 mm 1 mps 536 mmHg 85%
    09:00 +13°C° 0.3 mm 1 mps 537 mmHg 81%
    10:00 +14°C° 0.3 mm 1 mps 538 mmHg 77%
    11:00 +14°C° 0.9 mm 1 mps 537 mmHg 79%
    12:00 +14°C° 0.9 mm 1 mps 537 mmHg 80%
    13:00 +14°C° 0.9 mm 1 mps 536 mmHg 82%
    14:00 +14°C° 1.1 mm 1 mps 536 mmHg 83%
    15:00 +14°C° 1.1 mm 1 mps 535 mmHg 83%
    16:00 +14°C° 1.1 mm 2 mps 535 mmHg 84%
    17:00 +13°C° 1 mm 1 mps 535 mmHg 88%
    18:00 +12°C° 1 mm 1 mps 535 mmHg 92%
    19:00 +10°C° 1 mm 0 mps 535 mmHg 96%
    20:00 +10°C° 0.8 mm 0 mps 535 mmHg 96%
    21:00 +10°C° 0.8 mm 0 mps 535 mmHg 96%
    22:00 +10°C° 0.8 mm 0 mps 536 mmHg 95%
    23:00 +10°C° 0.4 mm 0 mps 535 mmHg 95%

    22 December, Saturday

    Time Temperature Precipitation Wind Pressure Humidity
    00:00 +9°C° 0.4 mm 0 mps 535 mmHg 95%
    01:00 +9°C° 0.4 mm 0 mps 535 mmHg 94%
    02:00 +9°C° 0.4 mm 0 mps 534 mmHg 94%
    03:00 +9°C° 0.4 mm 0 mps 534 mmHg 94%
    04:00 +9°C° 0.4 mm 0 mps 534 mmHg 94%
    05:00 +9°C° 0.3 mm 0 mps 534 mmHg 93%
    06:00 +9°C° 0.3 mm 0 mps 535 mmHg 93%
    07:00 +9°C° 0.3 mm 0 mps 535 mmHg 93%
    08:00 +11°C° 0.4 mm 1 mps 536 mmHg 90%
    09:00 +12°C° 0.4 mm 1 mps 536 mmHg 88%
    10:00 +13°C° 0.4 mm 1 mps 537 mmHg 85%
    11:00 +14°C° 0.4 mm 1 mps 537 mmHg 82%
    12:00 +14°C° 0.4 mm 1 mps 537 mmHg 79%
    13:00 +15°C° 0.4 mm 2 mps 537 mmHg 77%
    14:00 +15°C° 0.8 mm 2 mps 536 mmHg 78%
    15:00 +15°C° 0.8 mm 2 mps 536 mmHg 79%
    16:00 +14°C° 0.8 mm 2 mps 535 mmHg 80%
    17:00 +13°C° 0.6 mm 1 mps 535 mmHg 85%
    18:00 +12°C° 0.6 mm 1 mps 535 mmHg 90%
    19:00 +11°C° 0.6 mm 1 mps 535 mmHg 96%
    20:00 +11°C° 0.1 mm 1 mps 535 mmHg 95%
    21:00 +11°C° 0.1 mm 1 mps 535 mmHg 95%
    22:00 +10°C° 0.1 mm 1 mps 536 mmHg 95%
    23:00 +10°C° 0.1 mm 1 mps 535 mmHg 93%

    23 December, Sunday

    Time Temperature Precipitation Wind Pressure Humidity
    00:00 +10°C° 0.1 mm 1 mps 535 mmHg 92%
    01:00 +10°C° 0.1 mm 1 mps 535 mmHg 91%
    02:00 +10°C° 0 mm 1 mps 534 mmHg 91%
    03:00 +9°C° 0 mm 1 mps 534 mmHg 92%
    04:00 +9°C° 0 mm 1 mps 533 mmHg 92%
    05:00 +9°C° 0 mm 1 mps 534 mmHg 91%
    06:00 +10°C° 0 mm 1 mps 534 mmHg 89%
    07:00 +10°C° 0 mm 1 mps 535 mmHg 87%
    08:00 +12°C° 0 mm 1 mps 536 mmHg 78%
    09:00 +15°C° 0 mm 1 mps 538 mmHg 69%
    10:00 +17°C° 0 mm 2 mps 539 mmHg 60%
    11:00 +17°C° 0.2 mm 2 mps 538 mmHg 63%
    12:00 +17°C° 0.2 mm 2 mps 538 mmHg 65%
    13:00 +17°C° 0.2 mm 2 mps 537 mmHg 68%
    14:00 +16°C° 0.7 mm 2 mps 536 mmHg 72%
    15:00 +15°C° 0.7 mm 2 mps 536 mmHg 77%
    16:00 +14°C° 0.7 mm 2 mps 535 mmHg 81%
    17:00 +13°C° 0.3 mm 1 mps 535 mmHg 86%
    18:00 +12°C° 0.3 mm 1 mps 535 mmHg 91%
    19:00 +12°C° 0.3 mm 1 mps 534 mmHg 95%
    20:00 +11°C° 0.4 mm 1 mps 535 mmHg 95%
    21:00 +11°C° 0.4 mm 1 mps 535 mmHg 95%
    22:00 +10°C° 0.4 mm 0 mps 535 mmHg 95%
    23:00 +10°C° 0.3 mm 0 mps 535 mmHg 94%

    24 December, Monday

    Time Temperature Precipitation Wind Pressure Humidity
    00:00 +10°C° 0.3 mm 0 mps 535 mmHg 94%
    01:00 +10°C° 0.3 mm 1 mps 534 mmHg 93%
    02:00 +10°C° 0.3 mm 1 mps 534 mmHg 93%
    03:00 +10°C° 0.3 mm 1 mps 534 mmHg 94%
    04:00 +10°C° 0.3 mm 1 mps 534 mmHg 94%
    05:00 +10°C° 0.1 mm 1 mps 534 mmHg 94%
    06:00 +10°C° 0.1 mm 1 mps 534 mmHg 93%
    07:00 +10°C° 0.1 mm 1 mps 535 mmHg 93%
    08:00 +12°C° 0.1 mm 1 mps 536 mmHg 87%
    09:00 +13°C° 0.1 mm 1 mps 537 mmHg 81%
    10:00 +15°C° 0.1 mm 1 mps 538 mmHg 75%
    11:00 +15°C° 0.4 mm 2 mps 537 mmHg 75%
    12:00 +15°C° 0.4 mm 2 mps 537 mmHg 76%
    13:00 +16°C° 0.4 mm 2 mps 536 mmHg 77%
    14:00 +15°C° 0.8 mm 2 mps 536 mmHg 79%
    15:00 +15°C° 0.8 mm 2 mps 535 mmHg 81%
    16:00 +14°C° 0.8 mm 1 mps 534 mmHg 83%
    17:00 +13°C° 0.5 mm 1 mps 534 mmHg 87%
    18:00 +13°C° 0.5 mm 1 mps 534 mmHg 91%
    19:00 +12°C° 0.5 mm 1 mps 534 mmHg 95%
    20:00 +11°C° 0.2 mm 1 mps 534 mmHg 95%
    21:00 +11°C° 0.2 mm 1 mps 535 mmHg 95%
    22:00 +10°C° 0.2 mm 0 mps 535 mmHg 95%
    23:00 +11°C° 0.1 mm 1 mps 535 mmHg 95%
    Show more